STARLINK-32279

Last updated on Fri Oct 04 2024 00:02:04 GMT+0000 (Coordinated Universal Time)

1 61003U 24158P 24277.58334491 -.01474413 00000+0 -35441-1 0 9992 2 61003 53.1594 336.8020 0001239 67.6017 88.5000 15.43758201 5689
UTC large
Height (km)
Speed (km/s)
/
Latitude / Longitude
Inclination (degrees)
Orbital Period (minutes)
Azimuth
Elevation
Range (km)
Doppler Factor

Next 0 passes for location: London (51.5072 / 0.1276)

Sorry there are no passes over London.